Location: Unspecified
(0.0000°N, 0.0000°E)
Time: 01:07:27
(UTC+01:00)

HO-68 - Visible Passes

Search period start: 27 November 2014 00:00
Search period end: 07 December 2014 00:00
Orbit: 1193 x 1204 km, 100.2° (Epoch: 26 November)

Date Brightness Start Highest point End Pass type
(mag) Time Alt. Az. Time Alt. Az. Time Alt. Az.
27 Nov ? 22:34:05 10° SSW 22:35:16 15° SSW 22:35:16 15° SSW visible
28 Nov ? 22:16:38 10° S 22:18:13 17° SSW 22:18:13 17° SSW visible
29 Nov ? 21:59:26 10° S 22:01:09 19° S 22:01:09 19° S visible
30 Nov ? 21:42:28 10° SSE 21:44:06 19° SSE 21:44:06 19° SSE visible
01 Dec ? 21:25:41 10° SSE 21:27:02 17° SSE 21:27:02 17° SSE visible
02 Dec ? 21:09:07 10° SSE 21:09:59 14° SE 21:09:59 14° SE visible
02 Dec ? 22:58:45 10° SW 22:59:26 12° SW 22:59:26 12° SW visible
03 Dec ? 20:52:49 10° SE 20:52:55 10° SE 20:52:55 10° SE visible
03 Dec ? 22:40:45 10° SSW 22:42:22 16° SSW 22:42:22 16° SSW visible
04 Dec ? 22:23:10 10° S 22:25:19 20° SSW 22:25:19 20° SSW visible
05 Dec ? 22:05:53 10° S 22:08:15 22° S 22:08:15 22° S visible
06 Dec ? 21:48:49 10° S 21:51:11 23° S 21:51:11 23° S visible
